Tracking 31011 objects as of 12-Jul-2025
HD Live streaming from Space Station
objects crossing your sky now

STARLINK-32235

Track STARLINK-32235 now!
10-day predictions
STARLINK-32235 is classified as:


NORAD ID: 60739
Int'l Code: 2024-152V
Perigee: 481.3 km
Apogee: 483.5 km
Inclination: 53.2 °
Period: 94.1 minutes
Semi major axis: 6853 km
RCS: Unknown
Launch date: August 28, 2024
Source: United States (US)
Launch site: AIR FORCE EASTERN TEST RANGE (AFETR)
Your satellite tracking list
Your tracking list is empty




NASA's NSSDC Master Catalog

Two Line Element Set (TLE):
1 60739U 24152V   25193.49674012  .00001572  00000-0  65228-4 0  9994
2 60739  53.1612 304.2851 0001565 108.0531 252.0640 15.30186492 50028
Source of the keplerian elements: AFSPC